Time,TemperatureF,DewpointF,PressureIn,WindDirection,WindDirectionDegrees,WindSpeedMPH,WindSpeedGustMPH,Humidity,HourlyPrecipIn,Conditions,Clouds,dailyrainin,SoftwareType,DateUTC
2013-02-22 00:05:00,13.0,10.0,30.75,NNW,348,4.0,5.0,89,0.00,,,0.00,weatherlink.com 1.10,2013-02-22 05:05:00,
2013-02-22 00:20:00,13.4,11.0,30.73,NNW,338,4.0,12.0,89,0.00,,,0.00,weatherlink.com 1.10,2013-02-22 05:20:00,
2013-02-22 00:35:00,13.6,11.0,30.73,SW,224,2.0,5.0,89,0.00,,,0.00,weatherlink.com 1.10,2013-02-22 05:35:00,
2013-02-22 00:50:00,13.4,11.0,30.74,SW,217,0.0,3.0,89,0.00,,,0.00,weatherlink.com 1.10,2013-02-22 05:50:00,
2013-02-22 01:05:00,13.5,11.0,30.73,NW,322,0.0,6.0,90,0.00,,,0.00,weatherlink.com 1.10,2013-02-22 06:05:00,
2013-02-22 01:20:00,14.2,12.0,30.73,NW,311,1.0,5.0,90,0.00,,,0.00,weatherlink.com 1.10,2013-02-22 06:20:00,
2013-02-22 01:35:00,14.8,12.0,30.73,WSW,250,0.0,5.0,89,0.00,,,0.00,weatherlink.com 1.10,2013-02-22 06:35:00,
2013-02-22 01:50:00,14.8,12.0,30.73,NW,323,0.0,5.0,89,0.00,,,0.00,weatherlink.com 1.10,2013-02-22 06:50:00,
2013-02-22 02:05:00,14.4,12.0,30.72,NW,326,2.0,4.0,88,0.00,,,0.00,weatherlink.com 1.10,2013-02-22 07:05:00,
2013-02-22 02:21:00,13.7,11.0,30.70,NNW,330,0.0,4.0,89,0.00,,,0.00,weatherlink.com 1.10,2013-02-22 07:21:00,
2013-02-22 02:36:00,13.9,11.0,30.69,NW,316,1.0,4.0,89,0.00,,,0.00,weatherlink.com 1.10,2013-02-22 07:36:00,
2013-02-22 02:51:00,16.0,14.0,30.70,NW,323,2.0,4.0,92,0.00,,,0.00,weatherlink.com 1.10,2013-02-22 07:51:00,
2013-02-22 03:06:00,17.5,15.0,30.70,NW,305,3.0,7.0,88,0.00,,,0.00,weatherlink.com 1.10,2013-02-22 08:06:00,
2013-02-22 03:21:00,16.9,14.0,30.72,NW,319,2.0,5.0,88,0.00,,,0.00,weatherlink.com 1.10,2013-02-22 08:21:00,
2013-02-22 03:36:00,15.2,12.0,30.74,NNW,333,2.0,6.0,87,0.00,,,0.00,weatherlink.com 1.10,2013-02-22 08:36:00,
2013-02-22 03:51:00,15.8,13.0,30.74,NNW,328,2.0,4.0,90,0.00,,,0.00,weatherlink.com 1.10,2013-02-22 08:51:00,
2013-02-22 04:06:00,16.7,14.0,30.73,NNW,335,2.0,3.0,89,0.00,,,0.00,weatherlink.com 1.10,2013-02-22 09:06:00,
2013-02-22 04:21:00,17.0,14.0,30.74,West,264,2.0,2.0,88,0.00,,,0.00,weatherlink.com 1.10,2013-02-22 09:21:00,
2013-02-22 04:36:00,17.8,15.0,30.75,NW,320,2.0,4.0,90,0.00,,,0.00,weatherlink.com 1.10,2013-02-22 09:36:00,
2013-02-22 04:51:00,18.5,16.0,30.75,NNW,338,1.0,4.0,89,0.00,,,0.00,weatherlink.com 1.10,2013-02-22 09:51:00,
2013-02-22 05:06:00,18.5,16.0,30.75,NW,311,1.0,4.0,88,0.00,,,0.00,weatherlink.com 1.10,2013-02-22 10:06:00,
2013-02-22 05:21:00,17.9,15.0,30.75,NW,311,1.0,2.0,88,0.00,,,0.00,weatherlink.com 1.10,2013-02-22 10:21:00,
2013-02-22 05:36:00,16.5,14.0,30.74,NNW,330,1.0,2.0,88,0.00,,,0.00,weatherlink.com 1.10,2013-02-22 10:36:00,
2013-02-22 05:51:00,15.9,13.0,30.75,NW,326,1.0,2.0,89,0.00,,,0.00,weatherlink.com 1.10,2013-02-22 10:51:00,
2013-02-22 06:06:00,15.2,13.0,30.74,NW,326,1.0,3.0,89,0.00,,,0.00,weatherlink.com 1.10,2013-02-22 11:06:00,
2013-02-22 06:21:00,15.8,14.0,30.74,NW,323,1.0,1.0,91,0.00,,,0.00,weatherlink.com 1.10,2013-02-22 11:21:00,
2013-02-22 06:36:00,15.4,13.0,30.75,NNW,327,1.0,2.0,89,0.00,,,0.00,weatherlink.com 1.10,2013-02-22 11:36:00,
2013-02-22 06:51:00,16.0,14.0,30.76,NW,322,1.0,3.0,90,0.00,,,0.00,weatherlink.com 1.10,2013-02-22 11:51:00,
2013-02-22 07:06:00,16.2,14.0,30.78,NW,322,1.0,2.0,90,0.00,,,0.00,weatherlink.com 1.10,2013-02-22 12:06:00,
2013-02-22 07:21:00,16.3,14.0,30.78,NW,326,1.0,2.0,89,0.00,,,0.00,weatherlink.com 1.10,2013-02-22 12:21:00,
2013-02-22 07:36:00,16.6,14.0,30.78,WNW,283,0.0,1.0,89,0.00,,,0.00,weatherlink.com 1.10,2013-02-22 12:36:00,
2013-02-22 07:51:00,17.0,15.0,30.78,WNW,283,0.0,0.0,90,0.00,,,0.00,weatherlink.com 1.10,2013-02-22 12:51:00,
2013-02-22 08:06:00,18.2,16.0,30.77,West,265,0.0,1.0,89,0.00,,,0.00,weatherlink.com 1.10,2013-02-22 13:06:00,
2013-02-22 08:21:00,19.1,16.0,30.78,West,266,0.0,1.0,88,0.00,,,0.00,weatherlink.com 1.10,2013-02-22 13:21:00,
2013-02-22 08:36:00,20.1,16.0,30.77,West,264,0.0,1.0,85,0.00,,,0.00,weatherlink.com 1.10,2013-02-22 13:36:00,
2013-02-22 08:51:00,20.9,17.0,30.77,SSW,212,1.0,1.0,84,0.00,,,0.00,weatherlink.com 1.10,2013-02-22 13:51:00,
2013-02-22 09:06:00,21.1,17.0,30.77,SW,214,0.0,3.0,83,0.00,,,0.00,weatherlink.com 1.10,2013-02-22 14:06:00,
2013-02-22 09:21:00,21.6,17.0,30.76,SSE,165,0.0,3.0,82,0.00,,,0.00,weatherlink.com 1.10,2013-02-22 14:21:00,
2013-02-22 09:36:00,22.1,17.0,30.74,SSE,155,2.0,5.0,81,0.00,,,0.00,weatherlink.com 1.10,2013-02-22 14:36:00,
2013-02-22 09:51:00,22.2,17.0,30.74,SSW,196,4.0,4.0,81,0.00,,,0.00,weatherlink.com 1.10,2013-02-22 14:51:00,
2013-02-22 10:06:00,23.1,18.0,30.74,SW,218,3.0,3.0,80,0.00,,,0.00,weatherlink.com 1.10,2013-02-22 15:06:00,
2013-02-22 10:21:00,23.9,18.0,30.75,SW,218,2.0,5.0,78,0.00,,,0.00,weatherlink.com 1.10,2013-02-22 15:21:00,
2013-02-22 10:36:00,25.3,19.0,30.75,SSW,212,2.0,4.0,76,0.00,,,0.00,weatherlink.com 1.10,2013-02-22 15:36:00,
2013-02-22 10:52:00,27.0,19.0,30.76,South,172,1.0,4.0,72,0.00,,,0.00,weatherlink.com 1.10,2013-02-22 15:52:00,
2013-02-22 11:07:00,29.2,20.0,30.76,SW,222,4.0,5.0,69,0.00,,,0.00,weatherlink.com 1.10,2013-02-22 16:07:00,
2013-02-22 11:22:00,29.9,20.0,30.75,SW,217,2.0,6.0,66,0.00,,,0.00,weatherlink.com 1.10,2013-02-22 16:22:00,
2013-02-22 11:37:00,31.0,20.0,30.74,SSE,157,5.0,8.0,64,0.00,,,0.00,weatherlink.com 1.10,2013-02-22 16:37:00,
2013-02-22 11:52:00,30.4,19.0,30.73,SW,217,2.0,6.0,64,0.00,,,0.00,weatherlink.com 1.10,2013-02-22 16:52:00,
2013-02-22 12:07:00,30.6,20.0,30.73,South,176,2.0,7.0,64,0.00,,,0.00,weatherlink.com 1.10,2013-02-22 17:07:00,
2013-02-22 12:22:00,30.8,19.0,30.71,South,177,1.0,7.0,63,0.00,,,0.00,weatherlink.com 1.10,2013-02-22 17:22:00,
2013-02-22 12:37:00,31.3,20.0,30.71,SSE,153,2.0,8.0,62,0.00,,,0.00,weatherlink.com 1.10,2013-02-22 17:37:00,
2013-02-22 12:52:00,31.5,20.0,30.69,NW,315,1.0,9.0,62,0.00,,,0.00,weatherlink.com 1.10,2013-02-22 17:52:00,
2013-02-22 13:22:00,31.7,20.0,30.67,South,186,4.0,9.0,62,0.00,,,0.00,weatherlink.com 1.10,2013-02-22 18:22:00,
2013-02-22 13:37:00,30.3,19.0,30.67,South,188,4.0,9.0,63,0.00,,,0.00,weatherlink.com 1.10,2013-02-22 18:37:00,
2013-02-22 13:52:00,30.1,20.0,30.66,ENE,72,3.0,6.0,65,0.00,,,0.00,weatherlink.com 1.10,2013-02-22 18:52:00,
2013-02-22 14:07:00,30.0,19.0,30.66,SE,129,4.0,8.0,64,0.00,,,0.00,weatherlink.com 1.10,2013-02-22 19:07:00,
2013-02-22 14:22:00,29.6,19.0,30.66,East,86,3.0,9.0,64,0.00,,,0.00,weatherlink.com 1.10,2013-02-22 19:22:00,
2013-02-22 14:37:00,29.6,19.0,30.66,SSW,211,0.0,7.0,65,0.00,,,0.00,weatherlink.com 1.10,2013-02-22 19:37:00,
2013-02-22 14:52:00,29.5,19.0,30.66,SSW,208,3.0,6.0,65,0.00,,,0.00,weatherlink.com 1.10,2013-02-22 19:52:00,
2013-02-22 15:07:00,29.1,19.0,30.64,SW,224,2.0,9.0,66,0.00,,,0.00,weatherlink.com 1.10,2013-02-22 20:07:00,
2013-02-22 15:22:00,28.4,19.0,30.65,SW,218,8.0,8.0,67,0.00,,,0.00,weatherlink.com 1.10,2013-02-22 20:22:00,
2013-02-22 15:37:00,27.9,19.0,30.65,SSE,150,5.0,9.0,69,0.00,,,0.00,weatherlink.com 1.10,2013-02-22 20:37:00,
2013-02-22 15:52:00,27.6,19.0,30.64,ESE,106,3.0,6.0,71,0.00,,,0.00,weatherlink.com 1.10,2013-02-22 20:52:00,
2013-02-22 16:07:00,27.7,19.0,30.66,SSW,194,2.0,6.0,70,0.00,,,0.00,weatherlink.com 1.10,2013-02-22 21:07:00,
2013-02-22 16:22:00,27.5,19.0,30.66,SW,219,1.0,7.0,70,0.00,,,0.00,weatherlink.com 1.10,2013-02-22 21:22:00,
2013-02-22 16:37:00,27.7,19.0,30.65,SE,135,4.0,5.0,70,0.00,,,0.00,weatherlink.com 1.10,2013-02-22 21:37:00,
2013-02-22 16:52:00,27.2,19.0,30.66,SSE,153,3.0,5.0,71,0.00,,,0.00,weatherlink.com 1.10,2013-02-22 21:52:00,
2013-02-22 17:07:00,27.1,19.0,30.66,East,86,2.0,4.0,72,0.00,,,0.00,weatherlink.com 1.10,2013-02-22 22:07:00,
2013-02-22 17:22:00,26.9,19.0,30.65,SW,226,2.0,4.0,72,0.00,,,0.00,weatherlink.com 1.10,2013-02-22 22:22:00,
2013-02-22 17:37:00,26.4,19.0,30.66,SE,143,3.0,5.0,74,0.00,,,0.00,weatherlink.com 1.10,2013-02-22 22:37:00,
2013-02-22 17:52:00,26.2,19.0,30.64,East,79,1.0,5.0,74,0.00,,,0.00,weatherlink.com 1.10,2013-02-22 22:52:00,
2013-02-22 18:07:00,26.0,19.0,30.64,SW,229,1.0,5.0,76,0.00,,,0.00,weatherlink.com 1.10,2013-02-22 23:07:00,
2013-02-22 18:22:00,25.9,20.0,30.64,SE,139,2.0,4.0,77,0.00,,,0.00,weatherlink.com 1.10,2013-02-22 23:22:00,
2013-02-22 18:37:00,25.7,20.0,30.64,NE,37,3.0,5.0,78,0.00,,,0.00,weatherlink.com 1.10,2013-02-22 23:37:00,
2013-02-22 18:52:00,25.8,20.0,30.64,SSE,152,2.0,7.0,78,0.00,,,0.00,weatherlink.com 1.10,2013-02-22 23:52:00,
2013-02-22 19:07:00,25.9,20.0,30.63,SW,215,3.0,6.0,78,0.00,,,0.00,weatherlink.com 1.10,2013-02-23 00:07:00,
2013-02-22 19:22:00,25.8,20.0,30.64,SW,236,6.0,6.0,78,0.00,,,0.00,weatherlink.com 1.10,2013-02-23 00:22:00,
2013-02-22 19:37:00,25.8,20.0,30.62,SSE,151,3.0,6.0,79,0.00,,,0.00,weatherlink.com 1.10,2013-02-23 00:37:00,
2013-02-22 19:52:00,25.8,20.0,30.62,South,188,4.0,6.0,79,0.00,,,0.00,weatherlink.com 1.10,2013-02-23 00:52:00,
2013-02-22 20:07:00,25.7,20.0,30.62,South,172,3.0,7.0,80,0.00,,,0.00,weatherlink.com 1.10,2013-02-23 01:07:00,
2013-02-22 20:22:00,26.0,20.0,30.62,SSE,160,2.0,6.0,78,0.00,,,0.00,weatherlink.com 1.10,2013-02-23 01:22:00,
2013-02-22 20:37:00,26.2,20.0,30.62,ESE,115,2.0,8.0,77,0.00,,,0.00,weatherlink.com 1.10,2013-02-23 01:37:00,
2013-02-22 20:52:00,26.5,20.0,30.62,SW,218,2.0,11.0,76,0.00,,,0.00,weatherlink.com 1.10,2013-02-23 01:52:00,
2013-02-22 21:07:00,26.5,20.0,30.62,SSW,200,3.0,9.0,76,0.00,,,0.00,weatherlink.com 1.10,2013-02-23 02:07:00,
2013-02-22 21:22:00,26.5,20.0,30.62,South,179,4.0,10.0,76,0.00,,,0.00,weatherlink.com 1.10,2013-02-23 02:22:00,
2013-02-22 21:37:00,26.2,20.0,30.62,SSE,149,3.0,8.0,77,0.00,,,0.00,weatherlink.com 1.10,2013-02-23 02:37:00,
2013-02-22 21:52:00,26.3,20.0,30.61,SSW,208,5.0,10.0,77,0.00,,,0.00,weatherlink.com 1.10,2013-02-23 02:52:00,
2013-02-22 22:07:00,26.5,20.0,30.60,SSE,159,2.0,7.0,77,0.00,,,0.00,weatherlink.com 1.10,2013-02-23 03:07:00,
2013-02-22 22:23:00,26.6,20.0,30.60,South,169,3.0,13.0,76,0.00,,,0.00,weatherlink.com 1.10,2013-02-23 03:23:00,
2013-02-22 22:38:00,26.8,20.0,30.60,ENE,71,2.0,9.0,76,0.00,,,0.00,weatherlink.com 1.10,2013-02-23 03:38:00,
2013-02-22 22:53:00,26.9,20.0,30.60,SW,221,2.0,9.0,76,0.00,,,0.00,weatherlink.com 1.10,2013-02-23 03:53:00,
2013-02-22 23:08:00,27.0,21.0,30.60,South,176,3.0,10.0,77,0.00,,,0.00,weatherlink.com 1.10,2013-02-23 04:08:00,
2013-02-22 23:23:00,27.1,21.0,30.60,SW,225,3.0,8.0,79,0.00,,,0.00,weatherlink.com 1.10,2013-02-23 04:23:00,
2013-02-22 23:38:00,27.1,22.0,30.59,SW,214,3.0,11.0,81,0.00,,,0.00,weatherlink.com 1.10,2013-02-23 04:38:00,
2013-02-22 23:53:00,27.1,22.0,30.59,South,179,1.0,13.0,81,0.00,,,0.00,weatherlink.com 1.10,2013-02-23 04:53:00,